DW9936 Weather Reports


Display with metric or nautical units.
time (UTC)temp
F
wind
direction
speed
MPH
gust
MPH
rain 1hr
in
rain 24hr
in
rain mn
in
humidity
%
barometer
mb
20260902094531 81 181 0.0 3.0 0.00 0.00 0.00 44 1020.6
20260902093030 79 185 0.0 4.0 0.00 0.00 0.00 47 1020.7
20260902091522 78 143 0.0 3.0 0.00 0.00 0.00 47 1020.8
20260902090020 77 111 0.0 6.0 0.00 0.00 0.00 49 1021.0
20260902084516 76 156 0.0 4.0 0.00 0.00 0.00 52 1021.2
20260902083013 75 120 0.0 3.0 0.00 0.00 0.00 55 1021.2
20260902081507 73 159 0.0 3.0 0.00 0.00 0.00 57 1021.2
20260902080013 72 317 0.0 2.0 0.00 0.00 0.00 58 1021.3
20260902074502 71 209 0.0 2.0 0.00 0.00 0.00 61 1021.3
20260902073057 68 206 0.0 0.0 0.00 0.00 0.00 68 1021.3
20260902071601 65 209 0.0 0.0 0.00 0.00 0.00 70 1021.4
20260902070049 64 209 0.0 0.0 0.00 0.00 0.00 71 1021.3
20260902064549 64 209 0.0 0.0 0.00 0.00 0.00 71 1021.2
20260902063108 63 209 0.0 0.0 0.00 0.00 0.00 74 1021.2
20260902061552 62 209 0.0 0.0 0.00 0.00 0.00 76 1021.1
20260902060104 61 205 0.0 0.0 0.00 0.00 0.00 81 1021.1
20260902054545 60 204 0.0 0.0 0.00 0.00 0.00 82 1021.0
20260902053044 59 204 0.0 0.0 0.00 0.00 0.00 83 1021.0
20260902051541 58 204 0.0 0.0 0.00 0.00 0.00 82 1020.9
20260902050038 59 204 0.0 0.0 0.00 0.00 0.00 82 1020.9
20260902044543 59 204 0.0 0.0 0.00 0.00 0.00 81 1020.9
20260902043036 59 204 0.0 0.0 0.00 0.00 0.00 80 1020.8
20260902041538 60 204 0.0 0.0 0.00 0.00 0.00 79 1020.8
20260902040035 60 204 0.0 0.0 0.00 0.00 0.00 79 1020.7
20260902034532 60 204 0.0 0.0 0.00 0.00 0.00 79 1020.6
20260902033031 59 204 0.0 0.0 0.00 0.00 0.00 78 1020.7
20260902031538 60 204 0.0 0.0 0.00 0.00 0.00 77 1020.7
20260902030028 60 204 0.0 0.0 0.00 0.00 0.00 75 1020.6
20260902024527 60 204 0.0 0.0 0.00 0.00 0.00 75 1020.7
20260902023026 61 204 0.0 0.0 0.00 0.00 0.00 73 1020.8
20260902021536 61 204 0.0 2.0 0.00 0.00 0.00 72 1020.7
20260902020032 60 132 0.0 1.0 0.00 0.00 0.00 75 1020.7
20260902014543 60 132 0.0 0.0 0.00 0.00 0.00 74 1020.7
20260902013020 61 133 0.0 0.0 0.00 0.00 0.00 73 1020.9
20260902011517 62 133 0.0 0.0 0.00 0.00 0.00 72 1020.9
20260902010020 62 133 0.0 0.0 0.00 0.00 0.00 70 1020.9
20260902004518 62 133 0.0 0.0 0.00 0.00 0.00 70 1020.9
20260902003014 62 133 0.0 0.0 0.00 0.00 0.00 69 1020.9
20260902001512 63 133 0.0 0.0 0.00 0.00 0.00 69 1020.9
20260902000011 63 133 0.0 0.0 0.00 0.00 0.00 69 1020.9
20260901234522 63 133 0.0 0.0 0.00 0.00 0.00 69 1021.0
20260901233008 63 133 0.0 0.0 0.00 0.00 0.00 68 1021.0
20260901231506 63 133 0.0 0.0 0.00 0.00 0.00 67 1021.1
20260901230010 64 133 0.0 0.0 0.00 0.00 0.00 67 1021.2
20260901224502 64 133 0.0 0.0 0.00 0.00 0.00 66 1021.2
20260901223002 64 133 0.0 0.0 0.00 0.00 0.00 64 1021.1
20260901221630 64 133 0.0 0.0 0.00 0.00 0.00 64 1021.1
20260901220100 64 133 0.0 1.0 0.00 0.00 0.00 64 1021.1
20260901214557 64 133 0.0 0.0 0.00 0.00 0.00 64 1020.9
20260901213104 64 133 0.0 0.0 0.00 0.00 0.00 65 1020.9
20260901211555 64 133 0.0 2.0 0.00 0.00 0.00 65 1020.9
20260901210054 64 128 0.0 0.0 0.00 0.00 0.00 64 1020.8
20260901204556 65 128 0.0 0.0 0.00 0.00 0.00 62 1020.8
20260901203101 65 304 0.0 2.0 0.00 0.00 0.00 61 1020.6
20260901201551 65 296 0.0 1.0 0.00 0.00 0.00 62 1020.6
20260901200049 65 296 0.0 2.0 0.00 0.00 0.00 61 1020.5
20260901194548 66 193 0.0 0.0 0.00 0.00 0.00 60 1020.4
20260901193057 67 193 0.0 1.0 0.00 0.00 0.00 58 1020.4
20260901191549 67 322 0.0 2.0 0.00 0.00 0.00 58 1020.3
20260901190046 68 321 0.0 2.0 0.00 0.00 0.00 57 1020.0
20260901184548 68 321 0.0 2.0 0.00 0.00 0.00 55 1019.9
20260901183045 70 297 0.0 1.0 0.00 0.00 0.00 53 1019.8
20260901181544 71 297 0.0 1.0 0.00 0.00 0.00 51 1019.6
20260901180043 72 296 0.0 0.0 0.00 0.00 0.00 48 1019.3
20260901174542 74 296 0.0 0.0 0.00 0.00 0.00 46 1019.0
20260901173043 75 296 0.0 1.0 0.00 0.00 0.00 43 1019.0
20260901171542 76 296 0.0 1.0 0.00 0.00 0.00 42 1018.9
20260901170041 77 338 0.0 3.0 0.00 0.00 0.00 40 1018.9
20260901164541 78 338 0.0 4.0 0.00 0.00 0.00 39 1018.9
20260901163041 78 324 0.0 8.0 0.00 0.00 0.00 38 1018.9
20260901161545 79 320 1.0 8.0 0.00 0.00 0.00 37 1018.9
20260901160050 78 349 1.0 4.0 0.00 0.00 0.00 38 1018.9
20260901154538 79 335 1.0 5.0 0.00 0.00 0.00 37 1018.8
20260901153040 80 335 0.0 8.0 0.00 0.00 0.00 36 1018.9
20260901151537 80 341 1.0 6.0 0.00 0.00 0.00 35 1018.8
20260901150037 80 346 0.0 9.0 0.00 0.00 0.00 34 1018.9
20260901144538 81 302 2.0 10.0 0.00 0.00 0.00 33 1018.9
20260901143036 81 348 3.0 10.0 0.00 0.00 0.00 33 1018.9
20260901141537 83 329 1.0 8.0 0.00 0.00 0.00 31 1018.9
20260901140034 82 321 3.0 8.0 0.00 0.00 0.00 33 1018.8
20260901134550 81 317 1.0 6.0 0.00 0.00 0.00 36 1019.0
20260901133032 81 336 1.0 10.0 0.00 0.00 0.00 35 1019.0
20260901131533 80 346 1.0 8.0 0.00 0.00 0.00 37 1019.2
20260901130032 80 293 1.0 8.0 0.00 0.00 0.00 39 1019.3
20260901124531 81 329 3.0 10.0 0.00 0.00 0.00 36 1019.3
20260901123025 80 349 2.0 13.0 0.00 0.00 0.00 38 1019.4
20260901121524 79 332 0.0 4.0 0.00 0.00 0.00 40 1019.4
20260901120024 78 323 1.0 7.0 0.00 0.00 0.00 40 1019.5
20260901114526 78 132 0.0 12.0 0.00 0.00 0.00 40 1019.6
20260901113020 78 321 2.0 10.0 0.00 0.00 0.00 41 1019.7
20260901111519 77 325 2.0 9.0 0.00 0.00 0.00 41 1019.7
20260901110018 78 334 2.0 12.0 0.00 0.00 0.00 42 1019.8
20260901104518 78 253 2.0 13.0 0.00 0.00 0.00 42 1019.9
20260901103017 78 333 3.0 10.0 0.00 0.00 0.00 42 1019.9
20260901101514 77 302 1.0 6.0 0.00 0.00 0.00 44 1019.9
20260901100014 77 291 1.0 5.0 0.00 0.00 0.00 46 1019.9